Time,TemperatureF,DewpointF,PressureIn,WindDirection,WindDirectionDegrees,WindSpeedMPH,WindSpeedGustMPH,Humidity,HourlyPrecipIn,Conditions,Clouds,dailyrainin,SolarRadiationWatts/m^2,SoftwareType,DateUTC
2013-05-18 00:22:00,57.0,53.0,-100.00,South,173,8.0,13.0,87,0.00,,,0.00,0.000000,,2013-05-18 10:22:00,
2013-05-18 00:33:00,57.0,53.0,-100.00,South,173,8.0,13.0,87,0.00,,,0.00,0.000000,,2013-05-18 10:33:00,
2013-05-18 00:42:00,57.0,53.0,-100.00,South,173,8.0,13.0,87,0.00,,,0.00,0.000000,,2013-05-18 10:42:00,
2013-05-18 00:52:00,57.0,53.0,-100.00,South,173,8.0,13.0,87,0.00,,,0.00,0.000000,,2013-05-18 10:52:00,
2013-05-18 01:22:00,56.0,54.0,-100.00,South,176,6.0,14.0,94,0.00,,,0.00,0.000000,,2013-05-18 11:22:00,
2013-05-18 01:33:00,56.0,54.0,-100.00,South,176,6.0,14.0,94,0.00,,,0.00,0.000000,,2013-05-18 11:33:00,
2013-05-18 01:42:00,56.0,54.0,-100.00,South,176,6.0,14.0,94,0.00,,,0.00,0.000000,,2013-05-18 11:42:00,
2013-05-18 01:52:00,56.0,54.0,-100.00,South,176,6.0,14.0,94,0.00,,,0.00,0.000000,,2013-05-18 11:52:00,
2013-05-18 02:23:00,54.0,53.0,-100.00,SSE,160,8.0,13.0,95,0.00,,,0.00,0.000000,,2013-05-18 12:23:00,
2013-05-18 02:33:00,54.0,53.0,-100.00,SSE,160,8.0,13.0,95,0.00,,,0.00,0.000000,,2013-05-18 12:33:00,
2013-05-18 02:41:00,54.0,53.0,-100.00,SSE,160,8.0,13.0,95,0.00,,,0.00,0.000000,,2013-05-18 12:41:00,
2013-05-18 02:52:00,54.0,53.0,-100.00,SSE,160,8.0,13.0,95,0.00,,,0.00,0.000000,,2013-05-18 12:52:00,
2013-05-18 03:21:00,53.0,51.0,-100.00,SE,129,10.0,13.0,93,0.00,,,0.00,0.000000,,2013-05-18 13:21:00,
2013-05-18 03:33:00,53.0,51.0,-100.00,SE,129,10.0,13.0,93,0.00,,,0.00,0.000000,,2013-05-18 13:33:00,
2013-05-18 03:43:00,53.0,51.0,-100.00,SE,129,10.0,13.0,93,0.00,,,0.00,0.000000,,2013-05-18 13:43:00,
2013-05-18 03:52:00,53.0,51.0,-100.00,SE,129,10.0,13.0,93,0.00,,,0.00,0.000000,,2013-05-18 13:52:00,
2013-05-18 04:22:00,56.0,55.0,-100.00,SSW,202,7.0,13.0,96,0.00,,,0.00,0.000000,,2013-05-18 14:22:00,
2013-05-18 04:32:00,56.0,55.0,-100.00,SSW,202,7.0,13.0,96,0.00,,,0.00,0.000000,,2013-05-18 14:32:00,
2013-05-18 04:42:00,56.0,55.0,-100.00,SSW,202,7.0,13.0,96,0.00,,,0.00,0.000000,,2013-05-18 14:42:00,
2013-05-18 04:54:00,56.0,55.0,-100.00,SSW,202,7.0,13.0,96,0.00,,,0.00,0.000000,,2013-05-18 14:54:00,
2013-05-18 05:23:00,51.0,48.0,-100.00,SE,134,11.0,14.0,90,0.00,,,0.00,0.000000,,2013-05-18 15:23:00,
2013-05-18 05:33:00,51.0,48.0,-100.00,SE,134,11.0,14.0,90,0.00,,,0.00,0.000000,,2013-05-18 15:33:00,
2013-05-18 05:43:00,51.0,48.0,-100.00,SE,134,11.0,14.0,90,0.00,,,0.00,0.000000,,2013-05-18 15:43:00,
2013-05-18 05:53:00,51.0,48.0,-100.00,SE,134,11.0,14.0,90,0.00,,,0.00,0.000000,,2013-05-18 15:53:00,
2013-05-18 06:22:00,53.0,50.0,-100.00,ESE,123,12.0,18.0,88,0.00,,,-99.99,1.000000,,2013-05-18 16:22:00,
2013-05-18 06:32:00,53.0,50.0,-100.00,ESE,123,12.0,18.0,88,0.00,,,-99.99,1.000000,,2013-05-18 16:32:00,
2013-05-18 06:42:00,53.0,50.0,-100.00,ESE,123,12.0,18.0,88,0.00,,,-99.99,1.000000,,2013-05-18 16:42:00,
2013-05-18 06:52:00,53.0,50.0,-100.00,ESE,123,12.0,18.0,88,0.00,,,-99.99,1.000000,,2013-05-18 16:52:00,
2013-05-18 07:22:00,58.0,50.0,-100.00,SE,130,9.0,18.0,75,0.00,,,0.00,101.000000,,2013-05-18 17:22:00,
2013-05-18 07:32:00,58.0,50.0,-100.00,SE,130,9.0,18.0,75,0.00,,,0.00,101.000000,,2013-05-18 17:32:00,
2013-05-18 07:42:00,58.0,50.0,-100.00,SE,130,9.0,18.0,75,0.00,,,0.00,101.000000,,2013-05-18 17:42:00,
2013-05-18 07:51:00,58.0,50.0,-100.00,SE,130,9.0,18.0,75,0.00,,,0.00,101.000000,,2013-05-18 17:51:00,
2013-05-18 08:21:00,65.0,53.0,-100.00,West,273,5.0,11.0,66,0.00,,,0.00,363.000000,,2013-05-18 18:21:00,
2013-05-18 08:32:00,65.0,53.0,-100.00,West,273,5.0,11.0,66,0.00,,,0.00,363.000000,,2013-05-18 18:32:00,
2013-05-18 08:42:00,65.0,53.0,-100.00,West,273,5.0,11.0,66,0.00,,,0.00,363.000000,,2013-05-18 18:42:00,
2013-05-18 08:51:00,65.0,53.0,-100.00,West,273,5.0,11.0,66,0.00,,,0.00,363.000000,,2013-05-18 18:51:00,
2013-05-18 09:22:00,66.0,53.0,-100.00,NW,310,6.0,15.0,64,0.00,,,0.00,631.000000,,2013-05-18 19:22:00,
2013-05-18 09:32:00,66.0,53.0,-100.00,NW,310,6.0,15.0,64,0.00,,,0.00,631.000000,,2013-05-18 19:32:00,
2013-05-18 09:42:00,66.0,53.0,-100.00,NW,310,6.0,15.0,64,0.00,,,0.00,631.000000,,2013-05-18 19:42:00,
2013-05-18 09:52:00,66.0,53.0,-100.00,NW,310,6.0,15.0,64,0.00,,,0.00,631.000000,,2013-05-18 19:52:00,
2013-05-18 10:22:00,71.0,55.0,-100.00,NNW,337,9.0,17.0,58,0.00,,,0.00,843.000000,,2013-05-18 20:22:00,
2013-05-18 10:32:00,71.0,55.0,-100.00,NNW,337,9.0,17.0,58,0.00,,,0.00,843.000000,,2013-05-18 20:32:00,
2013-05-18 10:42:00,71.0,55.0,-100.00,NNW,337,9.0,17.0,58,0.00,,,0.00,843.000000,,2013-05-18 20:42:00,
2013-05-18 10:52:00,71.0,55.0,-100.00,NNW,337,9.0,17.0,58,0.00,,,0.00,843.000000,,2013-05-18 20:52:00,
2013-05-18 11:21:00,65.0,56.0,-100.00,NW,309,11.0,18.0,74,0.00,,,0.00,465.000000,,2013-05-18 21:21:00,
2013-05-18 11:32:00,65.0,56.0,-100.00,NW,309,11.0,18.0,74,0.00,,,0.00,465.000000,,2013-05-18 21:32:00,
2013-05-18 11:43:00,65.0,56.0,-100.00,NW,309,11.0,18.0,74,0.00,,,0.00,465.000000,,2013-05-18 21:43:00,
2013-05-18 11:53:00,65.0,56.0,-100.00,NW,309,11.0,18.0,74,0.00,,,0.00,465.000000,,2013-05-18 21:53:00,
2013-05-18 12:23:00,67.0,59.0,-100.00,NW,304,10.0,18.0,75,0.00,,,0.00,548.000000,,2013-05-18 22:23:00,
2013-05-18 12:33:00,67.0,59.0,-100.00,NW,304,10.0,18.0,75,0.00,,,0.00,548.000000,,2013-05-18 22:33:00,
2013-05-18 12:42:00,67.0,59.0,-100.00,NW,304,10.0,18.0,75,0.00,,,0.00,548.000000,,2013-05-18 22:42:00,
2013-05-18 12:52:00,67.0,59.0,-100.00,NW,304,10.0,18.0,75,0.00,,,0.00,548.000000,,2013-05-18 22:52:00,
2013-05-18 13:22:00,67.0,61.0,-100.00,WNW,296,12.0,18.0,80,0.00,,,0.00,514.000000,,2013-05-18 23:22:00,
2013-05-18 13:32:00,67.0,61.0,-100.00,WNW,296,12.0,18.0,80,0.00,,,0.00,514.000000,,2013-05-18 23:32:00,
2013-05-18 13:41:00,67.0,61.0,-100.00,WNW,296,12.0,18.0,80,0.00,,,0.00,514.000000,,2013-05-18 23:41:00,
2013-05-18 13:52:00,67.0,61.0,-100.00,WNW,296,12.0,18.0,80,0.00,,,0.00,514.000000,,2013-05-18 23:52:00,
2013-05-18 14:21:00,67.0,63.0,-100.00,NW,322,10.0,18.0,86,0.00,,,0.00,363.000000,,2013-05-19 00:21:00,
2013-05-18 14:31:00,67.0,63.0,-100.00,NW,322,10.0,18.0,86,0.00,,,0.00,363.000000,,2013-05-19 00:31:00,
2013-05-18 14:41:00,67.0,63.0,-100.00,NW,322,10.0,18.0,86,0.00,,,0.00,363.000000,,2013-05-19 00:41:00,
2013-05-18 14:51:00,67.0,63.0,-100.00,NW,322,10.0,18.0,86,0.00,,,0.00,363.000000,,2013-05-19 00:51:00,
2013-05-18 15:21:00,63.0,62.0,-100.00,NNW,328,6.0,17.0,95,0.00,,,0.00,187.000000,,2013-05-19 01:21:00,
2013-05-18 15:32:00,63.0,62.0,-100.00,NNW,328,6.0,17.0,95,0.00,,,0.00,187.000000,,2013-05-19 01:32:00,
2013-05-18 15:42:00,63.0,62.0,-100.00,NNW,328,6.0,17.0,95,0.00,,,0.00,187.000000,,2013-05-19 01:42:00,
2013-05-18 15:52:00,63.0,62.0,-100.00,NNW,328,6.0,17.0,95,0.00,,,0.00,187.000000,,2013-05-19 01:52:00,
2013-05-18 16:21:00,60.0,59.0,-100.00,NNW,340,13.0,22.0,98,0.00,,,0.00,106.000000,,2013-05-19 02:21:00,
2013-05-18 16:32:00,60.0,59.0,-100.00,NNW,340,13.0,22.0,98,0.00,,,0.00,106.000000,,2013-05-19 02:32:00,
2013-05-18 16:42:00,60.0,59.0,-100.00,NNW,340,13.0,22.0,98,0.00,,,0.00,106.000000,,2013-05-19 02:42:00,
2013-05-18 16:52:00,60.0,59.0,-100.00,NNW,340,13.0,22.0,98,0.00,,,0.00,106.000000,,2013-05-19 02:52:00,
2013-05-18 17:21:00,61.0,60.0,-100.00,NW,322,9.0,14.0,96,0.00,,,0.00,94.000000,,2013-05-19 03:21:00,
2013-05-18 17:33:00,61.0,60.0,-100.00,NW,322,9.0,14.0,96,0.00,,,0.00,94.000000,,2013-05-19 03:33:00,
2013-05-18 17:42:00,61.0,60.0,-100.00,NW,322,9.0,14.0,96,0.00,,,0.00,94.000000,,2013-05-19 03:42:00,
2013-05-18 17:53:00,61.0,60.0,-100.00,NW,322,9.0,14.0,96,0.00,,,0.00,94.000000,,2013-05-19 03:53:00,
2013-05-18 18:23:00,60.0,58.0,-100.00,NE,46,4.0,10.0,94,0.00,,,0.00,34.000000,,2013-05-19 04:23:00,
2013-05-18 18:33:00,60.0,58.0,-100.00,NE,46,4.0,10.0,94,0.00,,,0.00,34.000000,,2013-05-19 04:33:00,
2013-05-18 18:42:00,60.0,58.0,-100.00,NE,46,4.0,10.0,94,0.00,,,0.00,34.000000,,2013-05-19 04:42:00,
2013-05-18 18:52:00,60.0,58.0,-100.00,NE,46,4.0,10.0,94,0.00,,,0.00,34.000000,,2013-05-19 04:52:00,
2013-05-18 19:22:00,60.0,59.0,-100.00,ESE,117,1.0,6.0,95,0.00,,,0.00,9.000000,,2013-05-19 05:22:00,
2013-05-18 19:32:00,60.0,59.0,-100.00,ESE,117,1.0,6.0,95,0.00,,,0.00,9.000000,,2013-05-19 05:32:00,
2013-05-18 19:42:00,60.0,59.0,-100.00,ESE,117,1.0,6.0,95,0.00,,,0.00,9.000000,,2013-05-19 05:42:00,
2013-05-18 19:51:00,60.0,59.0,-100.00,ESE,117,1.0,6.0,95,0.00,,,0.00,9.000000,,2013-05-19 05:51:00,
2013-05-18 20:21:00,58.0,57.0,-100.00,South,178,4.0,6.0,96,0.00,,,0.00,0.000000,,2013-05-19 06:21:00,
2013-05-18 20:32:00,58.0,57.0,-100.00,South,178,4.0,6.0,96,0.00,,,0.00,0.000000,,2013-05-19 06:32:00,
2013-05-18 20:42:00,58.0,57.0,-100.00,South,178,4.0,6.0,96,0.00,,,0.00,0.000000,,2013-05-19 06:42:00,
2013-05-18 20:51:00,58.0,57.0,-100.00,South,178,4.0,6.0,96,0.00,,,0.00,0.000000,,2013-05-19 06:51:00,
2013-05-18 21:21:00,57.0,56.0,-100.00,WNW,295,2.0,5.0,98,0.00,,,0.00,0.000000,,2013-05-19 07:21:00,
2013-05-18 21:32:00,57.0,56.0,-100.00,WNW,295,2.0,5.0,98,0.00,,,0.00,0.000000,,2013-05-19 07:32:00,
2013-05-18 21:41:00,57.0,56.0,-100.00,WNW,295,2.0,5.0,98,0.00,,,0.00,0.000000,,2013-05-19 07:41:00,
2013-05-18 21:52:00,57.0,56.0,-100.00,WNW,295,2.0,5.0,98,0.00,,,0.00,0.000000,,2013-05-19 07:52:00,
2013-05-18 22:22:00,59.0,58.0,-100.00,South,169,3.0,5.0,98,0.00,,,0.00,0.000000,,2013-05-19 08:22:00,
2013-05-18 22:32:00,59.0,58.0,-100.00,South,169,3.0,5.0,98,0.00,,,0.00,0.000000,,2013-05-19 08:32:00,
2013-05-18 22:41:00,59.0,58.0,-100.00,South,169,3.0,5.0,98,0.00,,,0.00,0.000000,,2013-05-19 08:41:00,
2013-05-18 22:51:00,59.0,58.0,-100.00,South,169,3.0,5.0,98,0.00,,,0.00,0.000000,,2013-05-19 08:51:00,
2013-05-18 23:21:00,58.0,57.0,-100.00,WSW,248,2.0,5.0,97,0.00,,,0.00,0.000000,,2013-05-19 09:21:00,
2013-05-18 23:32:00,58.0,57.0,-100.00,WSW,248,2.0,5.0,97,0.00,,,0.00,0.000000,,2013-05-19 09:32:00,
2013-05-18 23:42:00,58.0,57.0,-100.00,WSW,248,2.0,5.0,97,0.00,,,0.00,0.000000,,2013-05-19 09:42:00,
2013-05-18 23:53:00,58.0,57.0,-100.00,WSW,248,2.0,5.0,97,0.00,,,0.00,0.000000,,2013-05-19 09:53:00,